CRK255 RCTP-VHHH

Flight info

Callsign CRK255
Flight time N/A
Altitude 36000
Route CHALI1A CHALI T3 MKG A1 ELATO V522 ABBEY
Aircraft A320/M-SDE3FGHIRWY/LB1

Departure

Time 2026-05-04 09:31
Airport Taiwan Taoyuan International Airport (RCTP)

Arrival

Time N/A
Airport Hong Kong International Airport (VHHH)
Time Latitude Longitude Altitude Speed Heading
2026-05-04 09:14 25.07388 121.23141 100 ft 0 kts 319°
2026-05-04 09:21 25.07385 121.23144 100 ft 3 kts 319°
2026-05-04 09:21 25.07365 121.23163 100 ft 4 kts 319°
2026-05-04 09:22 25.07344 121.23183 100 ft 4 kts 319°
2026-05-04 09:22 25.07324 121.23203 101 ft 4 kts 313°
2026-05-04 09:22 25.07308 121.23225 100 ft 4 kts 296°
2026-05-04 09:22 25.07302 121.23250 98 ft 4 kts 244°
2026-05-04 09:23 25.07305 121.23257 101 ft 0 kts 229°
2026-05-04 09:25 25.07202 121.23178 101 ft 6 kts 134°
2026-05-04 09:25 25.07173 121.23210 101 ft 6 kts 136°
2026-05-04 09:26 25.07142 121.23241 100 ft 6 kts 139°
2026-05-04 09:26 25.07101 121.23277 100 ft 12 kts 152°
2026-05-04 09:26 25.07022 121.23225 99 ft 14 kts 229°
2026-05-04 09:26 25.06959 121.23144 101 ft 13 kts 229°
2026-05-04 09:27 25.06885 121.23051 100 ft 18 kts 229°
2026-05-04 09:27 25.06806 121.22951 100 ft 17 kts 229°
2026-05-04 09:27 25.06733 121.22859 99 ft 15 kts 229°
2026-05-04 09:27 25.06667 121.22773 100 ft 14 kts 229°
2026-05-04 09:28 25.06606 121.22696 99 ft 13 kts 229°
2026-05-04 09:28 25.06544 121.22617 99 ft 19 kts 229°
2026-05-04 09:28 25.06452 121.22500 100 ft 20 kts 229°
2026-05-04 09:28 25.06366 121.22394 100 ft 18 kts 228°
2026-05-04 09:29 25.06287 121.22290 100 ft 16 kts 231°
2026-05-04 09:29 25.06223 121.22246 100 ft 10 kts 175°
2026-05-04 09:29 25.06165 121.22287 98 ft 11 kts 138°
2026-05-04 09:29 25.06109 121.22362 97 ft 14 kts 102°
2026-05-04 09:30 25.06166 121.22461 96 ft 23 kts 49°
2026-05-04 09:30 25.06431 121.22797 93 ft 91 kts 49°
2026-05-04 09:30 25.06974 121.23483 96 ft 144 kts 48°
2026-05-04 09:30 25.07681 121.24363 596 ft 152 kts 52°
2026-05-04 09:31 25.08372 121.25245 1349 ft 152 kts 53°
2026-05-04 09:31 25.09087 121.26179 1823 ft 169 kts 53°
2026-05-04 09:31 25.09894 121.27237 2172 ft 191 kts 52°
2026-05-04 09:31 25.11073 121.28118 2535 ft 227 kts 20°
2026-05-04 09:32 25.12754 121.27990 3076 ft 264 kts 341°
2026-05-04 09:32 25.14186 121.26667 3935 ft 286 kts 305°
2026-05-04 09:34 25.08060 121.14640 10675 ft 288 kts 234°
2026-05-04 09:34 25.06883 121.12778 11095 ft 302 kts 239°
2026-05-04 09:34 25.05791 121.10775 11744 ft 307 kts 242°
2026-05-04 09:34 25.04728 121.08716 12498 ft 310 kts 242°
2026-05-04 09:35 25.03661 121.06640 13272 ft 312 kts 242°
2026-05-04 09:35 25.02576 121.04560 14022 ft 314 kts 242°
2026-05-04 09:35 25.01467 121.02477 14695 ft 316 kts 241°
2026-05-04 09:35 25.00336 121.00385 15333 ft 319 kts 241°
2026-05-04 09:37 24.92039 120.85314 19456 ft 338 kts 241°
2026-05-04 09:37 24.90817 120.83096 20010 ft 339 kts 241°
2026-05-04 09:38 24.89591 120.80865 20560 ft 341 kts 241°
2026-05-04 09:38 24.88360 120.78626 21100 ft 343 kts 241°
2026-05-04 09:38 24.87119 120.76370 21661 ft 345 kts 242°
2026-05-04 09:38 24.85868 120.74101 22218 ft 348 kts 242°
2026-05-04 09:39 24.84609 120.71822 22758 ft 350 kts 242°
2026-05-04 09:39 24.83341 120.69526 23282 ft 352 kts 242°
2026-05-04 09:39 24.82065 120.67214 23763 ft 354 kts 242°
2026-05-04 09:39 24.80782 120.64889 24178 ft 356 kts 242°
2026-05-04 09:40 24.79490 120.62552 24574 ft 359 kts 242°
2026-05-04 09:40 24.78190 120.60204 24984 ft 361 kts 242°
2026-05-04 09:40 24.76880 120.57840 25371 ft 363 kts 242°
2026-05-04 09:40 24.75563 120.55463 25761 ft 365 kts 242°
2026-05-04 09:41 24.74233 120.53076 26141 ft 367 kts 240°
2026-05-04 09:42 24.59470 120.40582 28568 ft 394 kts 221°
2026-05-04 09:43 24.57210 120.38871 28937 ft 396 kts 220°
2026-05-04 09:43 24.54937 120.37149 29267 ft 398 kts 220°
2026-05-04 09:43 24.52650 120.35422 29593 ft 400 kts 220°
2026-05-04 09:43 24.50352 120.33688 29917 ft 402 kts 220°
2026-05-04 09:44 24.48044 120.31944 30200 ft 404 kts 220°
2026-05-04 09:44 24.45759 120.30218 30460 ft 405 kts 220°
2026-05-04 09:44 24.43440 120.28457 30722 ft 405 kts 221°
2026-05-04 09:46 24.27384 120.15956 33065 ft 399 kts 221°
2026-05-04 09:46 24.25123 120.14207 33455 ft 397 kts 221°
2026-05-04 09:46 24.22872 120.12469 33837 ft 395 kts 221°
2026-05-04 09:47 24.20633 120.10737 34163 ft 393 kts 221°
2026-05-04 09:47 24.18396 120.09007 34418 ft 394 kts 221°
2026-05-04 09:49 24.02712 119.96866 35975 ft 396 kts 221°
2026-05-04 09:49 24.00466 119.95135 36032 ft 393 kts 221°
2026-05-04 09:51 23.84846 119.83125 36034 ft 393 kts 221°
2026-05-04 09:51 23.80376 119.79688 36094 ft 395 kts 221°
2026-05-04 09:51 23.78151 119.77982 36258 ft 397 kts 221°
2026-05-04 09:52 23.75893 119.76251 36447 ft 397 kts 221°
2026-05-04 09:52 23.73630 119.74517 36610 ft 398 kts 221°
2026-05-04 09:52 23.71363 119.72779 36774 ft 399 kts 221°
2026-05-04 09:52 23.69093 119.71037 36951 ft 399 kts 221°
2026-05-04 09:53 23.66821 119.69297 37149 ft 399 kts 221°
2026-05-04 09:53 23.64548 119.67560 37344 ft 399 kts 221°
2026-05-04 09:53 23.62276 119.65822 37538 ft 399 kts 221°
2026-05-04 09:53 23.60133 119.63939 37740 ft 392 kts 230°
2026-05-04 09:54 23.58378 119.61702 37954 ft 387 kts 239°
2026-05-04 09:54 23.55516 119.56753 38026 ft 385 kts 241°
2026-05-04 09:55 23.52656 119.51816 38033 ft 386 kts 241°
2026-05-04 09:55 23.49790 119.46875 38038 ft 386 kts 241°
2026-05-04 09:56 23.46912 119.41931 38035 ft 387 kts 241°
2026-05-04 09:56 23.44030 119.36984 38039 ft 387 kts 241°
2026-05-04 09:57 23.41154 119.32038 38052 ft 387 kts 241°
2026-05-04 09:57 23.38758 119.27925 38052 ft 387 kts 241°
2026-05-04 09:58 23.35879 119.22976 38061 ft 387 kts 241°
2026-05-04 09:58 23.32994 119.18026 38063 ft 387 kts 241°
2026-05-04 10:00 23.21420 118.98233 38054 ft 388 kts 241°
2026-05-04 10:04 23.01093 118.63645 38057 ft 389 kts 241°
2026-05-04 10:04 22.98195 118.58741 38061 ft 388 kts 241°
2026-05-04 10:05 22.95282 118.53810 38067 ft 388 kts 241°
2026-05-04 10:05 22.92360 118.48884 38065 ft 388 kts 240°
2026-05-04 10:06 22.89431 118.43966 38064 ft 388 kts 240°
2026-05-04 10:06 22.86504 118.39045 38033 ft 389 kts 240°
2026-05-04 10:08 22.76207 118.21785 38064 ft 390 kts 240°
2026-05-04 10:08 22.73262 118.16857 38067 ft 390 kts 240°
2026-05-04 10:09 22.70306 118.11934 38065 ft 390 kts 240°
2026-05-04 10:09 22.67350 118.07008 38075 ft 390 kts 240°
2026-05-04 10:10 22.64403 118.02083 38077 ft 390 kts 241°
2026-05-04 10:10 22.61448 117.97160 38071 ft 390 kts 240°
2026-05-04 10:11 22.58502 117.92239 38073 ft 390 kts 241°
2026-05-04 10:11 22.55577 117.87301 38073 ft 390 kts 241°
2026-05-04 10:12 22.52650 117.82367 38073 ft 390 kts 241°
2026-05-04 10:12 22.49714 117.77434 38074 ft 390 kts 241°
2026-05-04 10:13 22.46776 117.72506 38074 ft 390 kts 241°
2026-05-04 10:13 22.43834 117.67575 38044 ft 390 kts 240°
2026-05-04 10:14 22.40886 117.62644 38047 ft 391 kts 240°
2026-05-04 10:16 22.33229 117.44375 38075 ft 385 kts 268°
2026-05-04 10:16 22.33191 117.41528 38074 ft 384 kts 268°
2026-05-04 10:16 22.33094 117.35754 38073 ft 384 kts 268°
2026-05-04 10:17 22.32981 117.29984 38072 ft 384 kts 268°
2026-05-04 10:19 22.32547 117.06937 38068 ft 384 kts 268°
2026-05-04 10:19 22.32429 117.01176 38069 ft 384 kts 268°
2026-05-04 10:20 22.32307 116.95419 38067 ft 383 kts 268°
2026-05-04 10:20 22.32181 116.89664 38065 ft 383 kts 268°
2026-05-04 10:21 22.32064 116.83915 38063 ft 383 kts 268°
2026-05-04 10:21 22.31944 116.78170 38038 ft 383 kts 268°
2026-05-04 10:22 22.31759 116.69541 38044 ft 384 kts 268°
2026-05-04 10:23 22.31637 116.63818 38047 ft 384 kts 268°
2026-05-04 10:25 22.31106 116.40760 38055 ft 384 kts 268°
2026-05-04 10:25 22.30965 116.34987 38058 ft 384 kts 268°
2026-05-04 10:26 22.30823 116.29215 38055 ft 385 kts 268°
2026-05-04 10:26 22.30680 116.23436 38066 ft 385 kts 268°
2026-05-04 10:27 22.30540 116.17658 38062 ft 385 kts 268°
2026-05-04 10:27 22.30395 116.11875 38061 ft 385 kts 268°
2026-05-04 10:28 22.30241 116.06093 38060 ft 385 kts 268°
2026-05-04 10:28 22.30090 116.00307 38060 ft 385 kts 268°
2026-05-04 10:29 22.29937 115.94522 38065 ft 385 kts 268°
2026-05-04 10:29 22.29788 115.88738 38059 ft 385 kts 268°
2026-05-04 10:30 22.29636 115.82957 38059 ft 385 kts 267°
2026-05-04 10:30 22.29477 115.77182 38059 ft 385 kts 267°
2026-05-04 10:31 22.29319 115.71407 38062 ft 385 kts 268°
2026-05-04 10:32 22.28770 115.51209 38067 ft 384 kts 268°
2026-05-04 10:33 22.28617 115.45448 38065 ft 384 kts 268°
2026-05-04 10:33 22.28449 115.39690 38063 ft 383 kts 267°
2026-05-04 10:34 22.28278 115.33938 38064 ft 383 kts 268°
2026-05-04 10:34 22.28108 115.28186 38045 ft 383 kts 267°
2026-05-04 10:35 22.27932 115.22436 38048 ft 383 kts 267°
2026-05-04 10:35 22.27753 115.16684 38048 ft 383 kts 267°
2026-05-04 10:36 22.27573 115.10973 38050 ft 383 kts 267°
2026-05-04 10:36 22.27392 115.05224 38050 ft 383 kts 267°
2026-05-04 10:37 22.27206 114.99478 38053 ft 383 kts 267°
2026-05-04 10:37 22.27019 114.93716 38042 ft 385 kts 268°
2026-05-04 10:39 22.25093 114.76711 38039 ft 392 kts 233°
2026-05-04 10:39 22.23179 114.74593 38030 ft 395 kts 229°
2026-05-04 10:40 22.19174 114.70508 38023 ft 397 kts 228°
2026-05-04 10:40 22.15140 114.66431 38015 ft 398 kts 228°
2026-05-04 10:41 22.11115 114.62325 38007 ft 398 kts 229°
2026-05-04 10:41 22.07101 114.58204 37994 ft 399 kts 229°
2026-05-04 10:42 22.03094 114.54056 38005 ft 398 kts 233°
2026-05-04 10:42 22.01625 114.51595 38004 ft 388 kts 249°
2026-05-04 10:42 22.00578 114.48921 38005 ft 388 kts 250°